DW2182 Weather Reports


time (UTC)temp
C
wind
direction
speed
KPH
gust
KPH
rain 1hr
cm
rain 24hr
cm
rain mn
cm
humidity
%
barometer
mb
20260509211516 17 158 11.3 29.0 0.00 0.00 0.00 25 1010.1
20260509210516 17 158 17.7 33.8 0.00 0.00 0.00 22 1010.0
20260509205537 18 158 16.1 29.0 0.00 0.00 0.00 22 1009.9
20260509204516 18 158 14.5 33.8 0.00 0.00 0.00 22 1009.8
20260509203516 18 135 12.9 27.4 0.00 0.00 0.00 25 1009.6
20260509202517 18 158 12.9 33.8 0.00 0.00 0.00 25 1009.6
20260509201516 18 158 12.9 30.6 0.00 0.00 0.00 26 1009.6
20260509200516 18 158 12.9 25.7 0.00 0.00 0.00 26 1009.5
20260509195516 18 135 14.5 27.4 0.00 0.00 0.00 27 1009.4
20260509194516 18 135 12.9 33.8 0.00 0.00 0.00 28 1009.3
20260509193517 18 135 14.5 30.6 0.00 0.00 0.00 26 1009.3
20260509192517 18 135 14.5 27.4 0.00 0.00 0.00 27 1009.2
20260509191516 18 158 14.5 27.4 0.00 0.00 0.00 28 1009.2
20260509190516 17 158 14.5 30.6 0.00 0.00 0.00 28 1009.1
20260509185536 18 158 14.5 22.5 0.00 0.00 0.00 28 1009.1
20260509184556 18 158 12.9 35.4 0.00 0.00 0.00 27 1009.1
20260509183536 18 135 14.5 25.7 0.00 0.00 0.00 28 1009.0
20260509182516 18 158 12.9 22.5 0.00 0.00 0.00 31 1008.8
20260509181516 18 158 16.1 30.6 0.00 0.00 0.00 29 1008.8
20260509180516 18 158 14.5 37.0 0.00 0.00 0.00 31 1008.9
20260509175516 18 135 11.3 22.5 0.00 0.00 0.00 31 1008.9
20260509174536 17 135 12.9 27.4 0.00 0.00 0.00 33 1008.7
20260509173516 17 158 17.7 30.6 0.00 0.00 0.00 32 1008.7
20260509172516 17 158 16.1 37.0 0.00 0.00 0.00 32 1008.7
20260509171537 17 158 14.5 30.6 0.00 0.00 0.00 35 1008.6
20260509170516 17 135 16.1 29.0 0.00 0.00 0.00 34 1008.7
20260509165516 17 135 11.3 19.3 0.00 0.00 0.00 35 1008.7
20260509164536 16 23 9.7 25.7 0.00 0.00 0.00 35 1008.6
20260509163516 16 158 14.5 30.6 0.00 0.00 0.00 35 1008.4
20260509162536 16 158 14.5 29.0 0.00 0.00 0.00 37 1008.6
20260509161516 15 158 12.9 25.7 0.00 0.00 0.00 41 1008.3
20260509160516 15 158 16.1 35.4 0.00 0.00 0.00 41 1008.3
20260509155556 15 158 11.3 24.1 0.00 0.00 0.00 47 1008.2
20260509154516 14 158 16.1 27.4 0.00 0.00 0.00 50 1008.2
20260509153516 13 135 9.7 20.9 0.00 0.00 0.00 53 1007.9
20260509152536 13 158 12.9 35.4 0.00 0.00 0.00 55 1008.0
20260509151516 13 158 11.3 22.5 0.00 0.00 0.00 56 1007.9
20260509150516 13 158 9.7 20.9 0.00 0.00 0.00 59 1007.6
20260509145516 13 158 11.3 20.9 0.00 0.00 0.00 61 1007.4
20260509144516 13 158 14.5 27.4 0.00 0.00 0.00 61 1007.2
20260509143516 12 158 12.9 24.1 0.00 0.00 0.00 66 1007.3
20260509142536 12 158 12.9 24.1 0.00 0.00 0.00 67 1007.1
20260509141516 13 158 14.5 25.7 0.00 0.00 0.00 66 1007.2
20260509140516 13 158 12.9 25.7 0.00 0.00 0.00 67 1007.1
20260509135516 13 158 12.9 25.7 0.00 0.00 0.00 65 1007.0
20260509134516 13 158 14.5 32.2 0.00 0.00 0.00 66 1006.8
20260509133637 13 135 12.9 22.5 0.00 0.00 0.00 67 1006.5
20260509132516 13 135 11.3 19.3 0.00 0.00 0.00 68 1006.3
20260509131516 13 135 12.9 22.5 0.00 0.00 0.00 69 1006.1
20260509130516 13 135 12.9 32.2 0.00 0.00 0.00 70 1005.7
20260509125516 12 135 12.9 25.7 0.00 0.00 0.00 70 1005.7
20260509124516 12 135 11.3 24.1 0.00 0.00 0.00 67 1005.6
20260509123515 12 135 9.7 17.7 0.00 0.00 0.00 65 1005.6
20260509122536 11 135 9.7 19.3 0.00 0.00 0.00 64 1005.4
20260509121516 11 135 6.4 11.3 0.00 0.00 0.00 65 1005.1
20260509120516 11 135 4.8 12.9 0.00 0.00 0.00 65 1004.9
20260509115515 11 135 3.2 6.4 0.00 0.00 0.00 62 1004.8
20260509114515 11 135 1.6 4.8 0.00 0.00 0.00 60 1004.6
20260509113516 11 0.0 1.6 0.00 0.00 0.00 59 1004.6
20260509112516 11 135 3.2 4.8 0.00 0.00 0.00 59 1005.0
20260509111515 11 113 3.2 6.4 0.00 0.00 0.00 57 1004.8
20260509110515 11 135 3.2 8.0 0.00 0.00 0.00 57 1004.7
20260509105516 11 135 1.6 4.8 0.00 0.00 0.00 56 1004.7
20260509104516 11 135 4.8 11.3 0.00 0.00 0.00 55 1004.5
20260509103515 11 135 3.2 12.9 0.00 0.00 0.00 53 1004.7
20260509102515 11 135 4.8 9.7 0.00 0.00 0.00 52 1004.6
20260509101515 11 135 4.8 16.1 0.00 0.00 0.00 50 1004.6
20260509100515 11 135 4.8 11.3 0.00 0.00 0.00 51 1004.2
20260509095535 11 135 6.4 11.3 0.00 0.00 0.00 51 1004.0
20260509094538 11 135 4.8 8.0 0.00 0.00 0.00 52 1003.7
20260509093515 10 135 6.4 12.9 0.00 0.00 0.00 53 1004.1
20260509092517 10 135 9.7 27.4 0.00 0.00 0.00 53 1004.1
20260509091516 9 113 4.8 9.7 0.00 0.00 0.00 55 1002.4
20260509090517 9 90 4.8 6.4 0.00 0.00 0.00 55 1002.4
20260509085537 9 90 3.2 6.4 0.00 0.00 0.00 55 1002.4
20260509084517 8 90 3.2 6.4 0.00 0.00 0.00 55 1002.3
20260509083518 8 90 3.2 6.4 0.00 0.00 0.00 56 1002.2
20260509082517 8 90 3.2 4.8 0.00 0.00 0.00 55 1002.2
20260509081517 8 90 3.2 6.4 0.00 0.00 0.00 56 1002.1
20260509080538 8 90 3.2 6.4 0.00 0.00 0.00 56 1002.2
20260509075518 8 90 3.2 4.8 0.00 0.00 0.00 56 1002.3
20260509074518 8 90 1.6 3.2 0.00 0.00 0.00 57 1002.1
20260509073518 8 90 3.2 4.8 0.00 0.00 0.00 58 1002.2
20260509072537 8 0.0 0.0 0.00 0.00 0.00 56 1002.6
20260509071517 8 0.0 0.0 0.00 0.00 0.00 56 1002.9
20260509070517 8 0.0 0.0 0.00 0.00 0.00 58 1002.9
20260509065519 9 0.0 0.0 0.00 0.00 0.00 57 1002.9
20260509064518 9 0.0 0.0 0.00 0.00 0.00 55 1003.2
20260509063518 10 0.0 0.0 0.00 0.00 0.00 54 1003.3
20260509062517 10 135 1.6 3.2 0.00 0.00 0.00 53 1003.4
20260509061517 10 0.0 0.0 0.00 0.00 0.00 53 1003.6
20260509060517 11 0.0 0.0 0.00 0.00 0.00 52 1003.6
20260509055517 11 0.0 0.0 0.00 0.00 0.00 51 1004.0
20260509054517 11 0.0 0.0 0.00 0.00 0.00 51 1003.8
20260509053517 12 0.0 0.0 0.00 0.00 0.00 47 1004.0
20260509052517 12 0.0 0.0 0.00 0.00 0.00 45 1004.2
20260509051517 13 0.0 0.0 0.00 0.00 0.00 44 1004.2
20260509050517 13 0.0 0.0 0.00 0.00 0.00 41 1004.2
20260509045518 13 0.0 0.0 0.00 0.00 0.00 39 1004.4
20260509044517 14 135 1.6 3.2 0.00 0.00 0.00 37 1004.4
20260509043516 14 135 1.6 3.2 0.00 0.00 0.00 37 1004.5
20260509042517 15 135 1.6 3.2 0.00 0.00 0.00 36 1004.5
20260509041518 15 135 1.6 3.2 0.00 0.00 0.00 36 1004.5
20260509040537 15 135 1.6 4.8 0.00 0.00 0.00 35 1004.6
20260509035518 16 0.0 3.2 0.00 0.00 0.00 34 1004.6
20260509034518 16 0.0 1.6 0.00 0.00 0.00 33 1004.5
20260509033518 16 135 1.6 4.8 0.00 0.00 0.00 33 1004.4
20260509032518 16 135 1.6 4.8 0.00 0.00 0.00 32 1004.4
20260509031537 17 158 3.2 8.0 0.00 0.00 0.00 32 1004.4
20260509030517 17 135 4.8 14.5 0.00 0.00 0.00 31 1004.3
20260509025517 17 135 4.8 11.3 0.00 0.00 0.00 30 1004.2
20260509024518 17 135 4.8 14.5 0.00 0.00 0.00 30 1004.2
20260509023518 18 135 4.8 12.9 0.00 0.00 0.00 29 1004.0
20260509022517 18 158 6.4 16.1 0.00 0.00 0.00 28 1003.8
20260509021517 18 135 6.4 12.9 0.00 0.00 0.00 27 1003.7
20260509020519 19 135 4.8 14.5 0.00 0.00 0.00 26 1003.4
20260509015517 19 135 8.0 16.1 0.00 0.00 0.00 26 1003.2
20260509014517 20 135 6.4 14.5 0.00 0.00 0.00 25 1002.9
20260509013517 20 135 6.4 17.7 0.00 0.00 0.00 25 1002.8
20260509012517 20 135 8.0 19.3 0.00 0.00 0.00 24 1002.8
20260509011537 21 158 8.0 19.3 0.00 0.00 0.00 24 1002.6
20260509010517 21 135 9.7 17.7 0.00 0.00 0.00 25 1002.5
20260509005517 21 135 11.3 22.5 0.00 0.00 0.00 24 1002.4
20260509004517 21 135 6.4 16.1 0.00 0.00 0.00 25 1002.3
20260509003517 22 135 11.3 27.4 0.00 0.00 0.00 25 1002.1
20260509002537 22 135 12.9 25.7 0.00 0.00 0.00 26 1001.9
20260509001518 22 135 9.7 17.7 0.00 0.00 0.00 27 1001.9
20260509000517 22 135 11.3 24.1 0.00 0.00 0.00 26 1001.9
20260508235517 22 135 12.9 27.4 0.00 0.00 0.00 26 1001.8
20260508234518 23 135 12.9 25.7 0.00 0.00 0.00 25 1001.9
20260508233517 23 135 14.5 25.7 0.00 0.00 0.00 25 1002.0
20260508232517 23 135 9.7 19.3 0.00 0.00 0.00 26 1001.9
20260508231557 23 135 14.5 35.4 0.00 0.00 0.00 25 1002.0
20260508230517 23 135 11.3 22.5 0.00 0.00 0.00 25 1002.1
20260508225537 23 135 11.3 25.7 0.00 0.00 0.00 25 1001.9
20260508224538 23 135 11.3 25.7 0.00 0.00 0.00 24 1001.7
20260508223517 24 135 14.5 24.1 0.00 0.00 0.00 23 1001.6
20260508222517 24 135 14.5 27.4 0.00 0.00 0.00 23 1001.6
20260508221517 24 135 9.7 17.7 0.00 0.00 0.00 23 1001.5
20260508220517 25 135 12.9 22.5 0.00 0.00 0.00 22 1001.5
20260508215517 25 135 11.3 19.3 0.00 0.00 0.00 21 1001.7
20260508214517 26 135 8.0 16.1 0.00 0.00 0.00 22 1001.8
20260508213517 25 113 8.0 17.7 0.00 0.00 0.00 22 1002.0
20260508212537 25 135 9.7 17.7 0.00 0.00 0.00 22 1002.0